Storm Lake, IA

8:42 AM CST on December 08, 2016 (GMT -0600)
Storm Lake Municipal

Weather History for KSLB - December, 2011

Change the Weather History Date:

Friday, December 16, 2011

  Actual Average Record
Temperature  
Mean Temperature 20 °F -  
Max Temperature 30 °F 30 °F 51 °F (2006)
Min Temperature 11 °F 15 °F -4 °F (2000)
Degree Days  
Heating Degree Days 44    
Moisture  
Dew Point 19 °F    
Average Humidity 85    
Maximum Humidity 92    
Minimum Humidity 77    
Precipitation  
Precipitation 0.00 in - - ()
Sea Level Pressure  
Sea Level Pressure 30.33 in    
Wind  
Wind Speed 6 mph (SSW)    
Max Wind Speed 14 mph    
Max Gust Speed -    
Visibility 10 miles    
Events      
Averages and records for this station are not official NWS values.
T = Trace of Precipitation, MM = Missing Value Source: NWS Daily Summary

Daily Weather History Graph

Daily Weather History Graph

Search for Another Location

Airport or City:

Trip Planner

Search our weather history database for the weather conditions in past years. The results will help you decide how hot, cold, wet, or windy it might be!

Date:

Astronomy

Dec. 16, 2011 Rise Set
Actual Time 7:44 AM CST 4:48 PM CST
Civil Twilight 7:12 AM CST 5:20 PM CST
Nautical Twilight 6:36 AM CST 5:56 PM CST
Astronomical Twilight 6:02 AM CST 6:30 PM CST
Moon 11:30 PM CST (12/16) 11:23 AM CST (12/16)
Length of Visible Light 10h 08m
Length of Day
9h 04m
Waning Gibbous, 64% of the Moon is Illuminated
Dec 16
Waning Gibbous
Dec 17
Last Quarter
Dec 24
New
Jan 1
First Quarter
Jan 9
Full

Hourly Weather History & Observations

Time (CST) Temp. Windchill Dew Point Humidity Pressure Visibility Wind Dir Wind Speed Gust Speed Precip Events Conditions
12:15 AM 18.1 °F 11.3 °F 15.1 °F 88% 30.37 in 10.0 mi NW 4.6 mph - N/A   Clear
12:35 AM 16.9 °F 9.8 °F 14.4 °F 90% 30.37 in 10.0 mi NW 4.6 mph - N/A   Clear
12:55 AM 16.5 °F 8.1 °F 13.8 °F 89% 30.37 in 10.0 mi NNW 5.8 mph - N/A   Clear
1:15 AM 16.0 °F 8.8 °F 13.6 °F 90% 30.37 in 10.0 mi NW 4.6 mph - N/A   Clear
1:35 AM 17.2 °F 10.2 °F 14.0 °F 87% 30.37 in 10.0 mi North 4.6 mph - N/A   Clear
1:55 AM 16.7 °F 9.6 °F 13.6 °F 88% 30.37 in 10.0 mi NNW 4.6 mph - N/A   Clear
2:15 AM 16.9 °F 8.5 °F 13.3 °F 86% 30.37 in 10.0 mi NW 5.8 mph - N/A   Clear
2:35 AM 16.7 °F 8.3 °F 12.9 °F 85% 30.37 in 10.0 mi NW 5.8 mph - N/A   Clear
3:15 AM 16.2 °F 7.6 °F 12.6 °F 86% 30.37 in 10.0 mi NNW 5.8 mph - N/A   Clear
3:35 AM 16.0 °F 6.3 °F 12.2 °F 85% 30.36 in 10.0 mi NNW 6.9 mph - N/A   Clear
4:15 AM 15.4 °F - 12.6 °F 88% 30.36 in 10.0 mi Calm Calm - N/A   Clear
4:35 AM 15.4 °F - 12.6 °F 88% 30.36 in 10.0 mi Calm Calm - N/A   Clear
4:55 AM 16.2 °F - 13.5 °F 89% 30.36 in 10.0 mi Calm Calm - N/A   Clear
5:15 AM 15.1 °F 7.7 °F 12.4 °F 89% 30.36 in 10.0 mi NNE 4.6 mph - N/A   Clear
5:35 AM 14.9 °F 7.5 °F 12.2 °F 89% 30.36 in 10.0 mi NE 4.6 mph - N/A   Clear
6:15 AM 14.7 °F 9.0 °F 12.6 °F 91% 30.36 in 10.0 mi ENE 3.5 mph - N/A   Clear
6:35 AM 15.4 °F - 13.1 °F 90% 30.37 in 10.0 mi Calm Calm - N/A   Clear
6:55 AM 14.2 °F - 11.3 °F 88% 30.37 in 10.0 mi Calm Calm - N/A   Clear
7:15 AM 11.8 °F - 9.7 °F 91% 30.37 in 10.0 mi Calm Calm - N/A   Clear
7:35 AM 13.3 °F - 10.6 °F 89% 30.37 in 10.0 mi Calm Calm - N/A   Clear
7:55 AM 12.9 °F 5.2 °F 10.8 °F 91% 30.38 in 10.0 mi South 4.6 mph - N/A   Clear
8:35 AM 15.1 °F 7.7 °F 13.1 °F 92% 30.38 in 10.0 mi SSW 4.6 mph - N/A   Clear
8:55 AM 17.1 °F 8.7 °F 14.5 °F 90% 30.38 in 10.0 mi SSW 5.8 mph - N/A   Clear
9:15 AM 17.8 °F 10.9 °F 15.1 °F 89% 30.39 in 10.0 mi SSW 4.6 mph - N/A   Clear
9:35 AM 18.9 °F 13.7 °F 16.3 °F 90% 30.39 in 10.0 mi SSW 3.5 mph - N/A   Clear
9:55 AM 20.5 °F 15.6 °F 17.6 °F 89% 30.40 in 10.0 mi SSW 3.5 mph - N/A   Clear
10:15 AM 21.9 °F 13.4 °F 18.1 °F 85% 30.40 in 10.0 mi South 6.9 mph - N/A   Mostly Cloudy
10:35 AM 23.0 °F 13.9 °F 18.1 °F 82% 30.40 in 10.0 mi South 8.1 mph - N/A   Scattered Clouds
10:55 AM 23.7 °F 14.7 °F 19.0 °F 82% 30.39 in 10.0 mi SSW 8.1 mph - N/A   Mostly Cloudy
11:15 AM 24.6 °F 16.7 °F 19.6 °F 81% 30.38 in 10.0 mi South 6.9 mph - N/A   Overcast
11:35 AM 25.0 °F 16.3 °F 19.9 °F 81% 30.37 in 10.0 mi SSW 8.1 mph - N/A   Overcast
11:55 AM 26.2 °F 17.1 °F 20.8 °F 80% 30.35 in 10.0 mi South 9.2 mph - N/A   Overcast
12:15 PM 27.0 °F 18.0 °F 21.2 °F 79% 30.34 in 10.0 mi South 9.2 mph - N/A   Scattered Clouds
12:35 PM 27.5 °F 17.4 °F 21.9 °F 80% 30.32 in 10.0 mi South 11.5 mph - N/A   Mostly Cloudy
12:55 PM 28.2 °F 17.7 °F 22.3 °F 78% 30.31 in 10.0 mi SSW 12.7 mph - N/A   Mostly Cloudy
1:15 PM 28.9 °F 18.6 °F 22.8 °F 78% 30.30 in 10.0 mi SSW 12.7 mph - N/A   Overcast
1:35 PM 29.8 °F 19.3 °F 23.4 °F 77% 30.29 in 10.0 mi South 13.8 mph - N/A   Overcast
1:55 PM 29.8 °F 19.8 °F 23.7 °F 78% 30.28 in 10.0 mi South 12.7 mph - N/A   Mostly Cloudy
2:15 PM 30.0 °F 21.1 °F 23.9 °F 78% 30.28 in 10.0 mi South 10.4 mph - N/A   Overcast
2:35 PM 30.0 °F 21.7 °F 23.9 °F 78% 30.28 in 10.0 mi South 9.2 mph - N/A   Mostly Cloudy
2:55 PM 30.2 °F 20.8 °F 24.1 °F 78% 30.28 in 10.0 mi South 11.5 mph - N/A   Overcast
3:15 PM 30.2 °F 21.3 °F 24.3 °F 79% 30.26 in 10.0 mi SSE 10.4 mph - N/A   Overcast
3:35 PM 30.2 °F 21.9 °F 24.4 °F 79% 30.26 in 10.0 mi SSE 9.2 mph - N/A   Overcast
3:55 PM 30.2 °F 22.6 °F 24.8 °F 80% 30.26 in 10.0 mi SSE 8.1 mph - N/A   Overcast
4:15 PM 29.8 °F 20.9 °F 24.8 °F 81% 30.26 in 10.0 mi SSE 10.4 mph - N/A   Overcast
4:35 PM 29.8 °F 22.2 °F 25.2 °F 83% 30.26 in 10.0 mi SSE 8.1 mph - N/A   Overcast
4:55 PM 29.5 °F 21.8 °F 25.5 °F 85% 30.26 in 10.0 mi South 8.1 mph - N/A   Overcast
5:15 PM 29.3 °F 21.5 °F 25.7 °F 86% 30.27 in 10.0 mi South 8.1 mph - N/A   Overcast
5:35 PM 29.1 °F 23.0 °F 25.9 °F 88% 30.27 in 10.0 mi South 5.8 mph - N/A   Overcast
5:55 PM 28.8 °F 21.7 °F 26.2 °F 90% 30.27 in 10.0 mi South 6.9 mph - N/A   Overcast
6:15 PM 28.8 °F 25.0 °F 26.2 °F 90% 30.28 in 10.0 mi SSW 3.5 mph - N/A   Overcast
6:35 PM 28.9 °F 25.2 °F 25.7 °F 88% 30.27 in 10.0 mi SSW 3.5 mph - N/A   Overcast
6:55 PM 29.3 °F 23.2 °F 25.7 °F 86% 30.26 in 10.0 mi South 5.8 mph - N/A   Overcast
7:15 PM 29.3 °F 20.8 °F 25.7 °F 86% 30.25 in 10.0 mi South 9.2 mph - N/A   Overcast
7:35 PM 29.3 °F 21.5 °F 25.7 °F 86% 30.25 in 10.0 mi South 8.1 mph - N/A   Overcast
7:55 PM 29.3 °F 22.3 °F 25.5 °F 86% 30.25 in 10.0 mi South 6.9 mph - N/A   Overcast
8:15 PM 29.3 °F 24.3 °F 25.5 °F 86% 30.24 in 10.0 mi SSW 4.6 mph - N/A   Overcast
8:35 PM 29.3 °F 21.5 °F 25.7 °F 86% 30.24 in 10.0 mi SSW 8.1 mph - N/A   Overcast
8:55 PM 29.1 °F 22.1 °F 25.5 °F 86% 30.24 in 10.0 mi SSW 6.9 mph - N/A   Mostly Cloudy
9:15 PM 28.0 °F 21.7 °F 25.2 °F 89% 30.23 in 7.0 mi SSW 5.8 mph - N/A   Scattered Clouds
9:35 PM 27.3 °F 20.9 °F 24.8 °F 90% 30.24 in 7.0 mi SSW 5.8 mph - N/A   Clear
9:55 PM 26.6 °F 19.1 °F 24.3 °F 91% 30.24 in 7.0 mi SW 6.9 mph - N/A   Clear
10:15 PM 25.5 °F 18.7 °F 23.5 °F 92% 30.23 in 7.0 mi SW 5.8 mph - N/A   Clear
10:35 PM 24.8 °F 15.3 °F 23.0 °F 93% 30.23 in 7.0 mi WSW 9.2 mph - N/A   Clear
10:55 PM 24.6 °F 15.8 °F 23.2 °F 94% 30.23 in 7.0 mi WSW 8.1 mph - N/A   Clear
11:15 PM 24.8 °F 16.1 °F 23.4 °F 94% 30.23 in 7.0 mi WSW 8.1 mph - N/A   Clear
11:35 PM 24.3 °F 16.3 °F 22.5 °F 93% 30.22 in 7.0 mi West 6.9 mph - N/A   Clear
11:55 PM 23.5 °F 13.7 °F 21.9 °F 94% 30.23 in 7.0 mi West 9.2 mph - N/A   Clear